Weather History for K3I2 - January, 2013

Change the Weather History Date:

Tuesday, January 1, 2013

  Actual Average (KHTS) Record (KHTS)
Temperature  
Mean Temperature 32 °F 34 °F  
Max Temperature 33 °F 42 °F 74 °F (1952)
Min Temperature 30 °F 26 °F -1 °F (1899)
Degree Days  
Heating Degree Days 34 31  
Month to date heating degree days 31  
Since 1 July heating degree days 1786  
Cooling Degree Days 0 0  
Month to date cooling degree days 0  
Year to date cooling degree days 0  
Moisture  
Dew Point 30 °F    
Average Humidity 92    
Maximum Humidity 100    
Minimum Humidity 64    
Precipitation  
Precipitation 0.00 in 0.10 in 1.53 in (1948)
Month to date precipitation 0.10  
Year to date precipitation 0.10  
Snow  
Snow 0.00 in - - ()
Month to date snowfall  
Since 1 September snowfall  
Snow Depth -    
Sea Level Pressure  
Sea Level Pressure 30.08 in    
Wind  
Wind Speed 3 mph (WSW)    
Max Wind Speed 10 mph    
Max Gust Speed -    
Visibility 6 miles    
Events Snow    
T = Trace of Precipitation, MM = Missing Value Source: NWS Daily Summary

Daily Weather History Graph

Daily Weather History Graph

Search for Another Location

Airport or City:

Trip Planner

Search our weather history database for the weather conditions in past years. The results will help you decide how hot, cold, wet, or windy it might be!

Date:

Astronomy

Jan. 01, 2013 Rise Set
Actual Time 7:47 AM EST 5:17 PM EST
Civil Twilight 7:17 AM EST 5:47 PM EST
Nautical Twilight 6:43 AM EST 6:20 PM EST
Astronomical Twilight 6:11 AM EST 6:52 PM EST
Moon 9:44 PM EST (1/1) 10:01 AM EST (1/1)
Length of Visible Light 10h 29m
Length of Day
9h 30m
Waning Gibbous, 83% of the Moon is Illuminated
Jan 1
Waning Gibbous
Jan 4
Last Quarter
Jan 11
New
Jan 18
First Quarter
Jan 26
Full

Hourly Weather History & Observations

Time (EST) Temp. Windchill Dew Point Humidity Pressure Visibility Wind Dir Wind Speed Gust Speed Precip Events Conditions
12:15 AM 33.8 °F 28.6 °F 28.4 °F 81% 30.10 in 7.0 mi SSW 5.8 mph - N/A Snow Light Snow
12:35 AM 33.8 °F 25.8 °F 28.4 °F 81% 30.11 in 7.0 mi SW 10.4 mph - N/A Snow Light Snow
12:55 AM 33.8 °F 25.8 °F 30.2 °F 87% 30.10 in 7.0 mi SW 10.4 mph - N/A Snow Light Snow
1:15 AM 32.0 °F 25.6 °F 30.2 °F 93% 30.10 in 3.0 mi SW 6.9 mph - N/A Snow Light Snow
1:35 AM 32.0 °F 27.5 °F 32.0 °F 100% 30.09 in 4.0 mi SSW 4.6 mph - N/A Snow Light Snow
1:55 AM 32.0 °F 26.4 °F 32.0 °F 100% 30.09 in 3.0 mi SSW 5.8 mph - N/A Snow Light Snow
2:15 AM 32.0 °F 27.5 °F 32.0 °F 100% 30.08 in 3.0 mi SSW 4.6 mph - N/A Snow Light Snow
2:35 AM 32.0 °F 26.4 °F 32.0 °F 100% 30.09 in 4.0 mi South 5.8 mph - N/A Snow Light Snow
2:55 AM 32.0 °F 28.7 °F 32.0 °F 100% 30.09 in 4.0 mi South 3.5 mph - N/A Snow Light Snow
3:15 AM 32.0 °F 27.5 °F 32.0 °F 100% 30.08 in 2.5 mi South 4.6 mph - N/A Snow Light Snow
3:35 AM 32.0 °F - 32.0 °F 100% 30.07 in 3.0 mi Calm Calm - N/A Snow Light Snow
3:55 AM 32.0 °F - 32.0 °F 100% 30.07 in 3.0 mi Calm Calm - N/A   Overcast
4:15 AM 32.0 °F - 32.0 °F 100% 30.06 in 4.0 mi Calm Calm - N/A   Overcast
4:35 AM 32.0 °F 28.7 °F 32.0 °F 100% 30.06 in 5.0 mi SSW 3.5 mph - N/A   Overcast
4:55 AM 32.0 °F - 32.0 °F 100% 30.05 in 5.0 mi Calm Calm - N/A   Mostly Cloudy
5:15 AM 32.0 °F - 32.0 °F 100% 30.05 in 4.0 mi Calm Calm - N/A   Overcast
5:35 AM 32.0 °F - 32.0 °F 100% 30.06 in 1.8 mi Calm Calm - N/A   Overcast
5:55 AM 32.0 °F - 32.0 °F 100% 30.07 in 1.5 mi Calm Calm - N/A   Overcast
6:15 AM 32.0 °F 27.5 °F 32.0 °F 100% 30.07 in 1.8 mi SW 4.6 mph - N/A   Overcast
6:35 AM 32.0 °F 28.7 °F 32.0 °F 100% 30.07 in 1.8 mi SW 3.5 mph - N/A   Overcast
6:55 AM 32.0 °F 27.5 °F 32.0 °F 100% 30.07 in 2.0 mi SW 4.6 mph - N/A   Overcast
7:15 AM 32.0 °F - 32.0 °F 100% 30.06 in 2.0 mi Calm Calm - N/A   Overcast
7:35 AM 32.0 °F - 32.0 °F 100% 30.07 in 2.0 mi Calm Calm - N/A   Overcast
7:55 AM 32.0 °F - 32.0 °F 100% 30.07 in 2.0 mi Calm Calm - N/A   Overcast
8:15 AM 32.0 °F - 32.0 °F 100% 30.08 in 2.5 mi Calm Calm - N/A   Overcast
8:35 AM 32.0 °F - 32.0 °F 100% 30.08 in 1.8 mi Calm Calm - N/A   Overcast
8:55 AM 32.0 °F 28.7 °F 32.0 °F 100% 30.08 in 2.5 mi SW 3.5 mph - N/A   Overcast
9:15 AM 32.0 °F 28.7 °F 32.0 °F 100% 30.08 in 2.5 mi SW 3.5 mph - N/A   Overcast
9:35 AM 32.0 °F 28.7 °F 32.0 °F 100% 30.08 in 2.5 mi WSW 3.5 mph - N/A   Overcast
9:55 AM 32.0 °F - 32.0 °F 100% 30.09 in 3.0 mi Calm Calm - N/A   Overcast
10:15 AM 33.8 °F 30.8 °F 32.0 °F 93% 30.09 in 4.0 mi WSW 3.5 mph - N/A   Overcast
10:35 AM 33.8 °F 30.8 °F 32.0 °F 93% 30.08 in 5.0 mi West 3.5 mph - N/A   Overcast
10:55 AM 33.8 °F - 32.0 °F 93% 30.08 in 7.0 mi Calm Calm - N/A   Overcast
11:15 AM 33.8 °F - 32.0 °F 93% 30.09 in 7.0 mi Calm Calm - N/A   Overcast
11:35 AM 33.8 °F - 32.0 °F 93% 30.08 in 7.0 mi Calm Calm - N/A   Overcast
11:55 AM 33.8 °F - 32.0 °F 93% 30.06 in 7.0 mi Calm Calm - N/A   Mostly Cloudy
12:15 PM 33.8 °F - 32.0 °F 93% 30.06 in 10.0 mi Calm Calm - N/A   Scattered Clouds
12:35 PM 33.8 °F - 32.0 °F 93% 30.06 in 10.0 mi Calm Calm - N/A   Mostly Cloudy
12:55 PM 33.8 °F - 32.0 °F 93% 30.04 in 10.0 mi Calm Calm - N/A   Overcast
1:15 PM 33.8 °F - 32.0 °F 93% 30.03 in 10.0 mi Calm Calm - N/A   Overcast
1:35 PM 33.8 °F 30.8 °F 32.0 °F 93% 30.04 in 10.0 mi West 3.5 mph - N/A   Overcast
1:55 PM 33.8 °F 30.8 °F 32.0 °F 93% 30.03 in 10.0 mi WNW 3.5 mph - N/A   Overcast
2:15 PM 33.8 °F - 32.0 °F 93% 30.03 in 10.0 mi Calm Calm - N/A   Mostly Cloudy
2:35 PM 33.8 °F 30.8 °F 32.0 °F 93% 30.05 in 10.0 mi West 3.5 mph - N/A   Mostly Cloudy
2:55 PM 33.8 °F 30.8 °F 32.0 °F 93% 30.04 in 10.0 mi WNW 3.5 mph - N/A   Mostly Cloudy
3:15 PM 33.8 °F - 32.0 °F 93% 30.05 in 10.0 mi Calm Calm - N/A   Mostly Cloudy
3:35 PM 33.8 °F - 32.0 °F 93% 30.06 in 10.0 mi Calm Calm - N/A   Overcast
3:55 PM 33.8 °F - 32.0 °F 93% 30.05 in 10.0 mi Calm Calm - N/A   Overcast
4:15 PM 33.8 °F - 32.0 °F 93% 30.05 in 10.0 mi Calm Calm - N/A   Overcast
4:35 PM 33.8 °F 30.8 °F 30.2 °F 87% 30.08 in 10.0 mi WNW 3.5 mph - N/A   Overcast
4:55 PM 33.8 °F - 30.2 °F 87% 30.07 in 10.0 mi Calm Calm - N/A   Overcast
5:15 PM 33.8 °F - 30.2 °F 87% 30.06 in 10.0 mi Calm Calm - N/A   Overcast
5:35 PM 32.0 °F - 30.2 °F 93% 30.07 in 10.0 mi Calm Calm - N/A   Overcast
5:55 PM 32.0 °F - 30.2 °F 93% 30.08 in 10.0 mi Calm Calm - N/A   Overcast
6:15 PM 32.0 °F - 30.2 °F 93% 30.07 in 7.0 mi Calm Calm - N/A   Overcast
6:35 PM 32.0 °F - 28.4 °F 87% 30.08 in 7.0 mi Calm Calm - N/A   Overcast
6:55 PM 32.0 °F - 28.4 °F 87% 30.09 in 7.0 mi Calm Calm - N/A   Overcast
7:15 PM 32.0 °F - 28.4 °F 87% 30.10 in 7.0 mi Calm Calm - N/A   Overcast
7:35 PM 32.0 °F - 28.4 °F 87% 30.10 in 7.0 mi Calm Calm - N/A   Mostly Cloudy
7:55 PM 32.0 °F - 28.4 °F 87% 30.09 in 7.0 mi Calm Calm - N/A   Scattered Clouds
8:15 PM 32.0 °F - 26.6 °F 80% 30.09 in 7.0 mi Calm Calm - N/A   Mostly Cloudy
8:35 PM 32.0 °F - 26.6 °F 80% 30.10 in 10.0 mi Calm Calm - N/A   Overcast
8:55 PM 32.0 °F - 26.6 °F 80% 30.10 in 7.0 mi Calm Calm - N/A   Overcast
9:15 PM 32.0 °F 28.7 °F 26.6 °F 80% 30.10 in 7.0 mi North 3.5 mph - N/A   Overcast
9:35 PM 32.0 °F - 26.6 °F 80% 30.10 in 10.0 mi Calm Calm - N/A   Overcast
9:55 PM 32.0 °F - 26.6 °F 80% 30.10 in 10.0 mi Calm Calm - N/A   Mostly Cloudy
10:15 PM 32.0 °F - 26.6 °F 80% 30.11 in 10.0 mi Calm Calm - N/A   Mostly Cloudy
10:35 PM 30.2 °F 25.4 °F 24.8 °F 80% 30.11 in 10.0 mi North 4.6 mph - N/A   Mostly Cloudy
10:55 PM 30.2 °F 26.7 °F 23.0 °F 75% 30.12 in 10.0 mi NNW 3.5 mph - N/A   Scattered Clouds
11:15 PM 30.2 °F 23.4 °F 21.2 °F 69% 30.12 in 10.0 mi NNW 6.9 mph - N/A   Mostly Cloudy
11:35 PM 30.2 °F 25.4 °F 19.4 °F 64% 30.15 in 10.0 mi North 4.6 mph - N/A   Scattered Clouds
11:55 PM 30.2 °F - 19.4 °F 64% 30.15 in 10.0 mi Calm Calm - N/A   Clear